GBFRV EGGD-LPFR

Flight info

Callsign GBFRV
Flight time N/A
Altitude 38000
Route EXMOR N92 DAWLY DCT BHD DCT SALCO DCT IBISU/N0482F390 DCT BALDA DCT ABUPI DCT ORVED DCT UPULO DCT ALAGU
Aircraft B78X/H-SDE1E2E3FGHIJ2J3J4J5M1RWXY/LB1D1

Departure

Time 2026-05-07 18:45
Airport Bristol Airport (EGGD)

Arrival

Time N/A
Airport Faro - Gago Coutinho International Airport (LPFR)
Time Latitude Longitude Altitude Speed Heading
2026-05-07 18:36 51.38543 -2.71469 631 ft 0 kts 357°
2026-05-07 18:39 51.38544 -2.71469 630 ft 0 kts 357°
2026-05-07 18:40 51.38542 -2.71468 631 ft 2 kts
2026-05-07 18:40 51.38527 -2.71471 619 ft 3 kts 33°
2026-05-07 18:40 51.38524 -2.71474 633 ft 0 kts 37°
2026-05-07 18:41 51.38516 -2.71397 632 ft 7 kts 146°
2026-05-07 18:41 51.38494 -2.71383 631 ft 0 kts 157°
2026-05-07 18:41 51.38482 -2.71381 629 ft 5 kts 175°
2026-05-07 18:41 51.38464 -2.71399 627 ft 6 kts 222°
2026-05-07 18:42 51.38456 -2.71432 628 ft 6 kts 254°
2026-05-07 18:42 51.38418 -2.71527 629 ft 7 kts 202°
2026-05-07 18:42 51.38409 -2.71529 631 ft 6 kts 189°
2026-05-07 18:42 51.38307 -2.71435 629 ft 23 kts 123°
2026-05-07 18:43 51.38299 -2.71222 626 ft 23 kts 85°
2026-05-07 18:43 51.38324 -2.70790 625 ft 47 kts 84°
2026-05-07 18:43 51.38317 -2.70538 623 ft 8 kts 103°
2026-05-07 18:43 51.38338 -2.70508 632 ft 0 kts 13°
2026-05-07 18:44 51.38317 -2.70513 620 ft 5 kts 321°
2026-05-07 18:44 51.38313 -2.70519 619 ft 7 kts 289°
2026-05-07 18:44 51.38310 -2.70844 630 ft 61 kts 266°
2026-05-07 18:44 51.38265 -2.71995 631 ft 144 kts 266°
2026-05-07 18:45 51.38190 -2.73970 854 ft 200 kts 267°
2026-05-07 18:45 51.38082 -2.76379 1912 ft 234 kts 263°
2026-05-07 18:45 51.37897 -2.79095 2910 ft 258 kts 258°
2026-05-07 18:45 51.37439 -2.81765 4788 ft 236 kts 246°
2026-05-07 18:46 51.36688 -2.83931 6718 ft 218 kts 232°
2026-05-07 18:46 51.35552 -2.85758 7498 ft 248 kts 213°
2026-05-07 18:46 51.33962 -2.87218 8188 ft 278 kts 206°
2026-05-07 18:46 51.31992 -2.87979 8914 ft 307 kts 186°
2026-05-07 18:47 51.29767 -2.88253 9673 ft 334 kts 186°
2026-05-07 18:47 51.27341 -2.88738 10018 ft 370 kts 191°
2026-05-07 18:47 51.24725 -2.89830 10167 ft 405 kts 198°
2026-05-07 18:47 51.21984 -2.91325 10735 ft 427 kts 200°
2026-05-07 18:48 51.19137 -2.92817 11775 ft 433 kts 197°
2026-05-07 18:48 51.16215 -2.94087 12978 ft 437 kts 195°
2026-05-07 18:48 51.13273 -2.95344 14243 ft 438 kts 196°
2026-05-07 18:48 51.10362 -2.96706 15465 ft 437 kts 197°
2026-05-07 18:49 51.07493 -2.98076 16753 ft 435 kts 197°
2026-05-07 18:49 51.04598 -2.99401 18068 ft 432 kts 197°
2026-05-07 18:49 51.01712 -3.00697 19293 ft 428 kts 197°
2026-05-07 18:49 50.98873 -3.01993 20503 ft 423 kts 197°
2026-05-07 18:50 50.96066 -3.03288 21785 ft 417 kts 197°
2026-05-07 18:50 50.93299 -3.04554 23103 ft 409 kts 197°
2026-05-07 18:50 50.90579 -3.05788 24337 ft 401 kts 197°
2026-05-07 18:50 50.87926 -3.06993 25508 ft 392 kts 197°
2026-05-07 18:51 50.85344 -3.08170 26729 ft 381 kts 197°
2026-05-07 18:51 50.82839 -3.09309 27989 ft 369 kts 197°
2026-05-07 18:51 50.80416 -3.10407 29289 ft 355 kts 197°
2026-05-07 18:51 50.78080 -3.11465 30448 ft 344 kts 197°
2026-05-07 18:52 50.75811 -3.12493 31392 ft 334 kts 197°
2026-05-07 18:52 50.73618 -3.13485 32344 ft 320 kts 197°
2026-05-07 18:52 50.71536 -3.14425 33311 ft 304 kts 197°
2026-05-07 18:52 50.69554 -3.15320 34248 ft 287 kts 197°
2026-05-07 18:53 50.67656 -3.16177 34743 ft 281 kts 197°
2026-05-07 18:53 50.65777 -3.17025 35002 ft 283 kts 197°
2026-05-07 18:53 50.63871 -3.17885 34972 ft 294 kts 197°
2026-05-07 18:53 50.61849 -3.18795 35002 ft 305 kts 197°
2026-05-07 18:54 50.59801 -3.19716 35018 ft 315 kts 197°
2026-05-07 18:54 50.57649 -3.20681 35032 ft 327 kts 197°
2026-05-07 18:54 50.55418 -3.21683 35041 ft 339 kts 197°
2026-05-07 18:54 50.53105 -3.22720 35041 ft 352 kts 197°
2026-05-07 18:55 50.50708 -3.23793 35048 ft 364 kts 197°
2026-05-07 18:55 50.48225 -3.24904 35052 ft 377 kts 197°
2026-05-07 18:55 50.45660 -3.26050 35042 ft 390 kts 197°
2026-05-07 18:55 50.43021 -3.27227 35041 ft 402 kts 197°
2026-05-07 18:56 50.40289 -3.28445 35042 ft 413 kts 197°
2026-05-07 18:56 50.37482 -3.29695 35040 ft 425 kts 197°
2026-05-07 18:56 50.34600 -3.30977 35038 ft 436 kts 197°
2026-05-07 18:57 50.28669 -3.33609 35035 ft 456 kts 197°
2026-05-07 18:57 50.22444 -3.36364 35027 ft 474 kts 196°
2026-05-07 18:58 50.16054 -3.39184 35013 ft 478 kts 196°
2026-05-07 18:58 50.09640 -3.42008 35010 ft 479 kts 197°
2026-05-07 18:59 50.03231 -3.44821 35007 ft 479 kts 197°
2026-05-07 18:59 49.96817 -3.47627 35010 ft 478 kts 196°
2026-05-07 19:00 49.90387 -3.50363 35059 ft 479 kts 196°
2026-05-07 19:00 49.83962 -3.53019 35110 ft 479 kts 196°
2026-05-07 19:01 49.77515 -3.55655 35157 ft 479 kts 196°
2026-05-07 19:01 49.71063 -3.58285 35212 ft 479 kts 196°
2026-05-07 19:02 49.64615 -3.60900 35254 ft 480 kts 196°
2026-05-07 19:02 49.58177 -3.63490 35303 ft 481 kts 196°
2026-05-07 19:03 49.51699 -3.66086 35343 ft 481 kts 196°
2026-05-07 19:03 49.45216 -3.68675 35383 ft 481 kts 196°
2026-05-07 19:04 49.38738 -3.71249 35434 ft 482 kts 196°
2026-05-07 19:04 49.32238 -3.73822 35484 ft 482 kts 196°
2026-05-07 19:05 49.25754 -3.76384 35527 ft 482 kts 196°
2026-05-07 19:05 49.19249 -3.78943 35569 ft 482 kts 196°
2026-05-07 19:06 49.12739 -3.81490 35613 ft 482 kts 196°
2026-05-07 19:06 49.02977 -3.85298 35691 ft 483 kts 196°
2026-05-07 19:07 48.96440 -3.87839 35733 ft 483 kts 196°
2026-05-07 19:07 48.89919 -3.90362 35781 ft 484 kts 196°
2026-05-07 19:08 48.83395 -3.92880 35835 ft 484 kts 196°
2026-05-07 19:08 48.76846 -3.95396 35892 ft 486 kts 196°
2026-05-07 19:09 48.70339 -3.97877 35910 ft 484 kts 196°
2026-05-07 19:09 48.63813 -4.00358 35910 ft 484 kts 196°
2026-05-07 19:10 48.57285 -4.02834 35903 ft 484 kts 196°
2026-05-07 19:10 48.50743 -4.05298 35910 ft 485 kts 196°
2026-05-07 19:11 48.44309 -4.08253 35925 ft 483 kts 203°
2026-05-07 19:11 48.38145 -4.12258 35926 ft 484 kts 206°
2026-05-07 19:12 48.31989 -4.16538 35919 ft 489 kts 206°
2026-05-07 19:12 48.25668 -4.20166 35917 ft 492 kts 197°
2026-05-07 19:13 48.19012 -4.22443 35935 ft 493 kts 195°
2026-05-07 19:13 48.12422 -4.25194 35924 ft 492 kts 199°
2026-05-07 19:14 48.05763 -4.27871 35913 ft 495 kts 197°
2026-05-07 19:14 47.99121 -4.30539 35913 ft 494 kts 198°
2026-05-07 19:15 47.92468 -4.33229 35912 ft 495 kts 197°
2026-05-07 19:15 47.85799 -4.35890 35913 ft 496 kts 198°
2026-05-07 19:16 47.79129 -4.38567 35914 ft 497 kts 198°
2026-05-07 19:16 47.72441 -4.41229 35922 ft 502 kts 198°
2026-05-07 19:17 47.65625 -4.43945 35918 ft 509 kts 198°
2026-05-07 19:17 47.58791 -4.46650 35921 ft 505 kts 198°
2026-05-07 19:18 47.52068 -4.49314 35922 ft 503 kts 198°
2026-05-07 19:18 47.45297 -4.51985 35995 ft 504 kts 198°
2026-05-07 19:19 47.38524 -4.54650 35991 ft 504 kts 198°
2026-05-07 19:19 47.31748 -4.57310 35984 ft 504 kts 198°
2026-05-07 19:20 47.24970 -4.59963 35984 ft 505 kts 198°
2026-05-07 19:20 47.18183 -4.62613 35985 ft 505 kts 197°
2026-05-07 19:21 47.11393 -4.65256 35981 ft 505 kts 197°
2026-05-07 19:21 47.04640 -4.67879 35976 ft 507 kts 197°
2026-05-07 19:22 46.97832 -4.70516 35980 ft 506 kts 197°
2026-05-07 19:22 46.91015 -4.73150 35978 ft 506 kts 197°
2026-05-07 19:23 46.84200 -4.75776 35980 ft 507 kts 197°
2026-05-07 19:23 46.77373 -4.78399 35978 ft 507 kts 197°
2026-05-07 19:24 46.70544 -4.81016 35976 ft 507 kts 197°
2026-05-07 19:24 46.63716 -4.83627 35975 ft 507 kts 197°
2026-05-07 19:25 46.56926 -4.86215 35979 ft 507 kts 197°
2026-05-07 19:25 46.50101 -4.88812 35979 ft 507 kts 197°
2026-05-07 19:26 46.43277 -4.91400 35978 ft 507 kts 197°
2026-05-07 19:26 46.36449 -4.93983 35973 ft 507 kts 197°
2026-05-07 19:27 46.29615 -4.96562 35972 ft 507 kts 197°
2026-05-07 19:27 46.22783 -4.99133 35968 ft 508 kts 197°
2026-05-07 19:28 46.15946 -5.01700 35971 ft 508 kts 197°
2026-05-07 19:28 46.09150 -5.04245 35968 ft 508 kts 197°
2026-05-07 19:29 46.02309 -5.06800 35965 ft 508 kts 197°
2026-05-07 19:29 45.95454 -5.09354 35960 ft 508 kts 197°
2026-05-07 19:30 45.88609 -5.11898 35956 ft 508 kts 197°
2026-05-07 19:30 45.81747 -5.14441 35958 ft 509 kts 198°
2026-05-07 19:31 45.74940 -5.16958 35960 ft 509 kts 198°
2026-05-07 19:31 45.68083 -5.19486 35954 ft 509 kts 198°
2026-05-07 19:32 45.61222 -5.22010 35949 ft 510 kts 198°
2026-05-07 19:32 45.54356 -5.24529 35949 ft 509 kts 198°
2026-05-07 19:33 45.47493 -5.27041 35950 ft 509 kts 198°
2026-05-07 19:33 45.41784 -5.29126 35947 ft 510 kts 198°
2026-05-07 19:34 45.34906 -5.31631 35942 ft 510 kts 198°
2026-05-07 19:34 45.28023 -5.34133 35942 ft 510 kts 198°
2026-05-07 19:35 45.21140 -5.36628 35942 ft 512 kts 198°
2026-05-07 19:35 45.14240 -5.39122 35935 ft 512 kts 198°
2026-05-07 19:36 45.07322 -5.41618 35935 ft 512 kts 198°
2026-05-07 19:36 45.00450 -5.44090 35934 ft 513 kts 198°
2026-05-07 19:37 44.93524 -5.46576 35931 ft 513 kts 198°
2026-05-07 19:37 44.86602 -5.49054 35929 ft 513 kts 198°
2026-05-07 19:38 44.79675 -5.51528 35937 ft 514 kts 198°
2026-05-07 19:38 44.72738 -5.53999 35933 ft 514 kts 198°
2026-05-07 19:39 44.65810 -5.56461 35928 ft 514 kts 198°
2026-05-07 19:39 44.58915 -5.58904 35933 ft 514 kts 198°
2026-05-07 19:40 44.51985 -5.61355 35925 ft 514 kts 198°
2026-05-07 19:40 44.45040 -5.63805 35908 ft 514 kts 198°
2026-05-07 19:41 44.38102 -5.66246 35921 ft 514 kts 198°